Location: �bnet
(46.9957°N, 8.4908°E)
Time: 01:00:26
(UTC+00:00)

NOSS 3-3 (C) - Pass Details

Date: 11 May 2021
Orbit: 806 x 1406 km, 63.4° (Epoch: 14 June)

Event Time Altitude Azimuth Distance (km) Brightness Sun altitude
Rises 19:30:49 0° 194° (SSW) 3,354 6.6 -6.7°
Reaches altitude 10° 19:33:15 10° 188° (S) 2,465 5.9 -7.1°
Maximum altitude 19:38:35 43° 118° (ESE) 1,252 4.2 -7.8°
Drops below altitude 10° 19:44:35 10° 49° (NE) 2,781 6.3 -8.6°
Sets 19:47:28 0° 43° (NE) 3,831 7.1 -9.0°
